COMPLETED DISPATCHED CALLS FOR SERVICE

Welcome to the Jacksonville Sheriff’s Office Completed Dispatched Calls for Service webpage. This page displays calls for service made to the Jacksonville Sheriff's Office that have recently been completed. The data on this page is refreshed automatically.

This information is not intended to be used as official crime data. This program does not provide information about all crimes, and excludes specific incidents such as sexual assaults and child abuse.

Disclaimer: The Jacksonville Sheriff's Office makes every effort to produce and publish current and accurate information. No warranties, expressed or implied, are provided for the data herein, its use, or its interpretation. The services provided are for informational purposes only and should not be relied on for any type of legal action.

Last refreshed 7/23 22:42:02

Incident # Dispatched Block Address Signal Call Description  
202400449617 7-23 21:12 ELLA ST / PULLMAN AVE 13 SUSPICIOUS PERSON
202400449578 7-23 20:59 PHILIPS HWY / LENOIR AVE 1050 TRAFFIC STOP
202400449554 7-23 20:58 5000 COLLINS RD 13 SUSPICIOUS PERSON
202400449555 7-23 20:56 10500 LEM TURNER RD 64 NOISE COMPLAINT
202400449564 7-23 20:44 4800 MONCRIEF RD 63 DISPUTE
202400449561 7-23 20:42 2100 SOUTHSIDE BLVD 4 AUTO CRASH
202400449527 7-23 20:40 100 KING ST 63 DISPUTE
202400449486 7-23 20:28 8500 ARGYLE BUSINESS LOOP 64 NOISE COMPLAINT
202400449535 7-23 20:27 11200 BEACH BLVD 63 DISPUTE
202400449526 7-23 20:27 4600 BRENTWOOD AVE 63 DISPUTE
202400449491 7-23 20:17 8800 BEACH BLVD 68 CON GAME/FLIM FLAM
202400449516 7-23 20:16 6200 FAULKNER CIR 76 ASSIST OTHER AGENCY
202400449506 7-23 20:14 300 40TH ST W 19 ANIMAL INVESTIGATION
202400449510 7-23 20:12 11500 HARTS ROAD 63 DISPUTE
202400449498 7-23 20:12 2000 6TH ST W 63 DISPUTE
202400449508 7-23 20:10 1500 MARBLE LAKE DR 76 ASSIST OTHER AGENCY
202400449458 7-23 20:09 7700 BLANDING BLVD 63 DISPUTE
202400449474 7-23 20:08 2600 DELLWOOD AVE 63 DISPUTE
202400449472 7-23 20:07 5300 AVENUE B 22 DOMESTIC
202400449501 7-23 20:07 6000 MARSHA DR 27 MENTALLY ILL PERSON
202400449428 7-23 20:06 7800 POINT MEADOWS DR 54 ILLEGALLY PARKED CAR
202400449439 7-23 20:02 11300 LEM TURNER RD 63 DISPUTE
202400449481 7-23 20:02 3500 BEACH BLVD 63 DISPUTE
202400449334 7-23 20:00 8800 MERSEYSIDE AVE 22 DOMESTIC
202400449435 7-23 19:59 8900 R G SKINNER PKWY 37 UNVERIFIED 911 CALL
202400449419 7-23 19:56 1000 EDGEWOOD AVE N 63 DISPUTE
202482014128 7-23 19:55 1900 FRANCIS AVE 77 WELL BEING CHECK
202400449348 7-23 19:54 1500 28TH ST E 49 REPORT TO HOSPITAL
202400449467 7-23 19:50 700 LIBERTY ST N 73 DRUG INVESTIGATION
202400449466 7-23 19:50 700 LIBERTY ST N 73 DRUG INVESTIGATION
202400449456 7-23 19:49 9900 OLD BAYMEADOWS RD 63 DISPUTE
202400449463 7-23 19:49 6800 SANDLE DR 4 AUTO CRASH
202400449329 7-23 19:45 7500 103RD ST 4 AUTO CRASH
202400449350 7-23 19:39 100 DAMES POINT BRG N 16 ROAD OBSTRUCTION
202400449391 7-23 19:36 500 23RD ST W 22 DOMESTIC
202400449420 7-23 19:35 BEACH BLVD / FOREST BLVD 12 RECKLESS DRIVER
202400449433 7-23 19:35 7100 BLANDING BLVD 1 IMPAIRED/DRUNK DRIVER
202400449429 7-23 19:29 8500 BEACH BLVD 60 SUICIDE OR ATTEMPT
202400449425 7-23 19:29 3500 BLANDING BLVD 2 IMPAIRED/INTOXICATED
202400449388 7-23 19:28 APPLETON AVE / BLANDING BLVD 13 SUSPICIOUS PERSON
202400449357 7-23 19:26 COMMONWEALTH AVE / PICKETTVILLE RD 16 ROAD OBSTRUCTION
202400449417 7-23 19:24 1200 GRANT ST 22 DOMESTIC
202400449315 7-23 19:24 800 GATE RUN RD 63 DISPUTE
202400449278 7-23 19:22 SAN JOSE BLVD / WESTBERRY RD 4 AUTO CRASH
202400449415 7-23 19:22 9400 ATLANTIC BLVD 76 ASSIST OTHER AGENCY
202400449399 7-23 19:20 11800 MAIN ST N 22 DOMESTIC
202400449361 7-23 19:17 9100 MERRILL RD 22 DOMESTIC
202400449400 7-23 19:14 800 STOCKTON ST 63 DISPUTE
202400448915 7-23 19:13 7300 BLANDING BLVD 22 DOMESTIC
202400449270 7-23 19:12 1500 BERNITA ST 4 AUTO CRASH
202400449372 7-23 19:11 I10 AT LANE AVE 16 ROAD OBSTRUCTION
202400449383 7-23 19:09 BEACH BLVD / HODGES BLVD 68 CON GAME/FLIM FLAM
202482014122 7-23 19:09 100 SHERRY DR 54 ILLEGALLY PARKED CAR
202400449376 7-23 19:03 8200 GALVESTON AVE 14CJ VANDALISM CONVEYANCE JUST OCCURRED
202400449375 7-23 19:03 2600 POST ST 60 SUICIDE OR ATTEMPT
202400449152 7-23 19:01 5800 OVELLA RD 16 ROAD OBSTRUCTION
202400449150 7-23 19:00 6900 MORSE AVE 56 JUVENILE COMPLAINT
202400449349 7-23 18:59 1100 AIRPORT RD 63 DISPUTE
202400449257 7-23 18:59 14400 SAN PABLO DR 54 ILLEGALLY PARKED CAR
202400449297 7-23 18:59 JAMMES RD / 103RD ST 4 AUTO CRASH
202400449324 7-23 18:57 4700 WATER OAK LN 22 DOMESTIC
202400449355 7-23 18:55 11000 BACALL RD W 63 DISPUTE
202400449359 7-23 18:54 I95 N OFF RAMP / FORSYTH ST W 12 RECKLESS DRIVER
202400449194 7-23 18:54 11700 PALM LAKE DR 63 DISPUTE
202400449353 7-23 18:53 6600 PRITCHARD RD 2288 DOMESTIC DISPUTE WITH/ASSAULT
202400449259 7-23 18:51 7700 NORMANDY BLVD 56 JUVENILE COMPLAINT
202400449339 7-23 18:50 11600 FT CAROLINE LAKES DR 22 DOMESTIC
202400449332 7-23 18:50 10700 NEW KINGS RD 63 DISPUTE
202400449298 7-23 18:49 12100 LAKE FERN DR 27 MENTALLY ILL PERSON
202400449336 7-23 18:49 7100 WILEY RD 4 AUTO CRASH
202400449299 7-23 18:47 3500 ARMSTRONG ST 2288 DOMESTIC DISPUTE WITH/ASSAULT
202400449320 7-23 18:46 300 47TH ST E 63 DISPUTE
202400449252 7-23 18:46 13200 CITY STATION DR 9J THEFT JUST OCCURRED
202400449323 7-23 18:45 11800 ROLLING RIVER BLVD 37 UNVERIFIED 911 CALL
202400449328 7-23 18:41 9100 MADISON AVE 76 ASSIST OTHER AGENCY
202400449291 7-23 18:40 CATOMA ST / 101ST ST 19 ANIMAL INVESTIGATION
202400449310 7-23 18:34 5700 BEACH BLVD 3 HIT AND RUN CRASH
202400448607 7-23 18:33 1600 10TH ST W 8 MISSING PERSON
202400449283 7-23 18:30 7300 POWERS AVE 0 73 ARMED DRUG ACTIVITY
202400449302 7-23 18:30 4900 SAMARITAN WAY 76 ASSIST OTHER AGENCY
202482014118 7-23 18:27 1000 HIBISCUS ST 22 DOMESTIC
202400449136 7-23 18:24 2400 CANEY OAKS DR E 63 DISPUTE
202400449268 7-23 18:22 1100 AIRPORT RD 63 DISPUTE
202400449284 7-23 18:17 1400 DUNN AVE 88P ASSAULT IN PROGRESS
202400449209 7-23 18:16 2300 SOTTERLEY LN 76 ASSIST OTHER AGENCY
202400449133 7-23 18:13 PARK ST / PINEGROVE AVE 4 53 TRAFFIC CRASH PERSON INJURED
202400449272 7-23 18:12 10800 HARTS RD 63 DISPUTE
202400449279 7-23 18:12 1900 DURKEE DR W 76 ASSIST OTHER AGENCY
202400449274 7-23 18:07 3400 MAIDEN VOYAGE CIR S 64 NOISE COMPLAINT
202400449069 7-23 18:07 400 BIRD RD 88 ASSAULT
202400448765 7-23 18:07 5100 ATTLEBORO ST 63 DISPUTE
202400449273 7-23 18:05 660(1646) BLK 46TH ST W 1050 TRAFFIC STOP
202400449262 7-23 18:02 10600 LEM TURNER RD 9J THEFT JUST OCCURRED
202400449266 7-23 18:02 8000 PHILIPS HWY 60 SUICIDE OR ATTEMPT
202400449267 7-23 18:02 2200 THE WOODS DR E 19 ANIMAL INVESTIGATION
202400449243 7-23 17:58 5500 BARKER ST 19 ANIMAL INVESTIGATION
202400449251 7-23 17:57 12500 SAN JOSE BLVD 4 AUTO CRASH
202482014117 7-23 17:57 1900 MAYPORT RD 63 DISPUTE
202400449261 7-23 17:56 7300 LEM TURNER RD 4 53 TRAFFIC CRASH PERSON INJURED
202400449260 7-23 17:56 9800 ATLANTIC BLVD 4 53 TRAFFIC CRASH PERSON INJURED
202400449256 7-23 17:55 100 1ST ST E 76 ASSIST OTHER AGENCY
202400449233 7-23 17:54 10200 SHOPS LN 9J THEFT JUST OCCURRED
202400449147 7-23 17:52 6900 GEORGE WOOD LN S 76 ASSIST OTHER AGENCY
202400449227 7-23 17:51 UNIVERSITY BLVD S / BEACH BLVD 16 ROAD OBSTRUCTION
202400449222 7-23 17:48 ROOSEVELT BLVD / YORKTOWN AVE 16 ROAD OBSTRUCTION
202400449240 7-23 17:45 45TH ST W / AVENUE B 4 AUTO CRASH
202400449241 7-23 17:44 8500 BAYCENTER RD 60 SUICIDE OR ATTEMPT
202400449127 7-23 17:44 VERNA BLVD / LENOX AVE 4 63 CRASH INVOLVING DISPUTE
202400449224 7-23 17:44 1300 DUNN AVE 63 DISPUTE
202400449237 7-23 17:43 100 MAGNOLIA ST 4 AUTO CRASH
202400449106 7-23 17:42 2600 UNIVERSITY BLVD N 9 THEFT
202400449235 7-23 17:42 12300 SHELL BEACH TRL 12 RECKLESS DRIVER
202400449234 7-23 17:41 DUPONT AVE / ST AUGUSTINE RD 3 HIT AND RUN CRASH
202400449104 7-23 17:41 12500 SAN JOSE BLVD 3 HIT AND RUN CRASH
202400449218 7-23 17:40 300 18TH ST W 63 DISPUTE
202400448983 7-23 17:39 1100 KINGS RD 2288 DOMESTIC DISPUTE WITH/ASSAULT
202400449204 7-23 17:39 10200 ATLANTIC BLVD 63 DISPUTE
202400449192 7-23 17:38 13400 BEACH BLVD 63 DISPUTE
202400449213 7-23 17:37 3600 UNIVERSITY BLVD S 4 AUTO CRASH
202400448969 7-23 17:37 3700 BLANDING BLVD 63 DISPUTE
202400449226 7-23 17:36 200 BEAVER ST W 13 SUSPICIOUS PERSON
202400449205 7-23 17:36 1100 GRAND CYPRESS CT 60 SUICIDE OR ATTEMPT
202400449142 7-23 17:35 14600 BEACH BLVD 63 DISPUTE
202400449201 7-23 17:33 8500 OAK LEAF RD 63 DISPUTE
202400449215 7-23 17:32 HODGES BLVD / BEACH BLVD 68 CON GAME/FLIM FLAM
202400449190 7-23 17:27 MYRTLE AVE S / FOREST ST 4 AUTO CRASH
202400449120 7-23 17:22 5400 LA MOYA AVE 63 DISPUTE
202400449196 7-23 17:21 BEAVER ST W / OTIS RD S 76 ASSIST OTHER AGENCY
202400449159 7-23 17:20 15300 MAIN ST N 1050 TRAFFIC STOP
202400449131 7-23 17:20 300 ASHLEY ST W 64 NOISE COMPLAINT
202400449189 7-23 17:18 1700 OSCEOLA ST 16 ROAD OBSTRUCTION
202400449187 7-23 17:17 6200 POWERS ST 4 AUTO CRASH
202400449188 7-23 17:17 NEWNAN ST N / FORSYTH ST E 1050 TRAFFIC STOP
202400449165 7-23 17:16 9800 BEACH BLVD 63 DISPUTE
202400449178 7-23 17:16 8800 OLD KINGS RD S 27 MENTALLY ILL PERSON
202400449179 7-23 17:14 13000 GRAN BAY PKWY 56 JUVENILE COMPLAINT
202400449068 7-23 17:13 7100 OLD KINGS RD S 14C VANDALISM CONVEYANCE
202400449157 7-23 17:12 8500 OCALA AVE 95 FRAUD/FORGED (CHECK, ID, RX)
202400449079 7-23 17:10 JEFFERSON ST N / BAY ST W 4 AUTO CRASH
202400449122 7-23 17:10 3900 UNIVERSITY BLVD S 4 AUTO CRASH
202400449170 7-23 17:10 4500 SAN JUAN AVE 4 53 TRAFFIC CRASH PERSON INJURED
202400449160 7-23 17:09 4200 MONCRIEF RD W 1066 CANCEL
202400449050 7-23 17:09 1200 MCDUFF AVE N 63 DISPUTE
202400449158 7-23 17:08 FT CAROLINE RD / STARBOARD DR 4 AUTO CRASH
202400449167 7-23 17:07 9100 MERRILL RD 95P FRAUD/FORGED (CHECK, ID, RX) IN PROGRESS
202400449163 7-23 17:07 OLD ST AUGUSTINE RD / LOSCO RD 4 AUTO CRASH
202400449155 7-23 17:03 GILLESPIE AVE / NEW BERLIN RD 19 ANIMAL INVESTIGATION
202400449139 7-23 17:03 3700 UNIVERSITY BLVD S 63 DISPUTE
202400449039 7-23 17:02 4800 COLLINS RD 37 UNVERIFIED 911 CALL
202400449137 7-23 17:02 WONDERWOOD DR / SR A1A 4 AUTO CRASH
202400449149 7-23 17:01 3800 WHITEHALL ST 63 DISPUTE
202400449051 7-23 16:59 3700 BELFORT RD 6388 DISPUTE WITH ASSAULT
202400449135 7-23 16:57 400 STARRATT RD 0 63 ARMED DISPUTE
202482014116 7-23 16:55 13700 ATLANTIC BLVD 1050 TRAFFIC STOP
202400449132 7-23 16:53 I95 N OFF RAMP / PECAN PARK RD 96 ASSIST MOTORIST
202400449128 7-23 16:50 600 NEWNAN ST N 13 SUSPICIOUS PERSON
202400449124 7-23 16:49 1200 1ST ST E 0 63 ARMED DISPUTE
202400449117 7-23 16:48 10400 BISCAYNE BLVD 14C VANDALISM CONVEYANCE
202400449118 7-23 16:46 BOULEVARD / 21ST ST W 4 53 TRAFFIC CRASH PERSON INJURED
202400449096 7-23 16:44 1700 EGNER ST 37 UNVERIFIED 911 CALL
202400449059 7-23 16:43 LOMAX ST / PARK ST 13 SUSPICIOUS PERSON
202400449116 7-23 16:43 14200 BEACH BLVD 1066 CANCEL
202400449113 7-23 16:41 2100 LANE AVENUE 76 ASSIST OTHER AGENCY
202400449115 7-23 16:41 8TH ST W / BOULEVARD 13 SUSPICIOUS PERSON
202400449081 7-23 16:40 8200 BEAVER ST 9 THEFT
202400449101 7-23 16:39 12800 HOLSINGER BLVD 27 MENTALLY ILL PERSON
202400449048 7-23 16:38 2200 EDGEWOOD AVE W 63 DISPUTE
202400449065 7-23 16:36 1400 DUNN AVE 1066 CANCEL
202400449103 7-23 16:35 BUSCH DR / BALMORAL DR 16 ROAD OBSTRUCTION
202400449097 7-23 16:33 100 ADAMS ST W 63 DISPUTE
202400449091 7-23 16:33 I295 N OFF RAMP / BLANDING BLVD 4 53 TRAFFIC CRASH PERSON INJURED
202400448955 7-23 16:32 11900 CHARLIE RD 22 DOMESTIC
202400449095 7-23 16:32 3900 OLDFIELD CROSSING DR 63 DISPUTE
202400449092 7-23 16:32 3000 MONCRIEF RD 3388 DISCHARGING FIREARM AT PERSON
202400449093 7-23 16:31 4400 MELVIN CIR W 76 ASSIST OTHER AGENCY
202400449086 7-23 16:31 3400 PHILIPS HWY 1066 CANCEL
202400449085 7-23 16:28 LANE AVE S / SAN JUAN AVE 16 ROAD OBSTRUCTION
202400448826 7-23 16:26 500 WONDERWOOD DR 19 ANIMAL INVESTIGATION
202400449077 7-23 16:25 600 8TH ST W 96 ASSIST MOTORIST
202400449067 7-23 16:25 5100 UNIVERSITY BLVD W 63 DISPUTE
202400449036 7-23 16:24 6300 BEACH BLVD 63 DISPUTE
202400449058 7-23 16:22 1700 HAMILTON ST 76 ASSIST OTHER AGENCY
202400449064 7-23 16:22 300 40TH ST W 19 ANIMAL INVESTIGATION
202400449027 7-23 16:18 10200 ATLANTIC BLVD 63 DISPUTE
202400449054 7-23 16:18 I95 N OFF RAMP / LEM TURNER RD 16 ROAD OBSTRUCTION
202400449007 7-23 16:17 10500 OLD ST AUGUSTINE RD 4 AUTO CRASH
202400448950 7-23 16:12 7700 SOUTHSIDE BLVD 22 DOMESTIC
202400449044 7-23 16:10 4200 OLDFIELD CROSSING DR 22 DOMESTIC
202400449019 7-23 16:10 11300 BEACH BLVD 63 DISPUTE
202400449047 7-23 16:09 12700 ATLANTIC BLVD 4 AUTO CRASH
202400449018 7-23 16:06 1100 FORSYTH ST W 22 DOMESTIC
202400449000 7-23 16:06 7300 BLANDING BLVD 4 AUTO CRASH
202400449037 7-23 16:06 PHILIPS HWY / ALPHONS ST 4 AUTO CRASH
202400010388 7-23 16:05 100 U N F DR 37 UNVERIFIED 911 CALL
202400449035 7-23 16:04 2600 DUNN AVE 56 JUVENILE COMPLAINT
202400448999 7-23 16:04 13200 ATLANTIC BLVD 63 DISPUTE
202400449029 7-23 16:03 11400 EMUNESS RD 13 SUSPICIOUS PERSON
202400448936 7-23 16:02 1900 MCMILLAN ST 63 DISPUTE
202400449004 7-23 16:02 1000 8TH ST E 4 AUTO CRASH
202400449005 7-23 16:02 1300 IONIA ST 21C BURGLARY CONVEYANCE
202400448996 7-23 15:59 14900 MAX LEGGETT PKWY 63 DISPUTE
202400448848 7-23 15:56 2200 11TH ST W 63 DISPUTE
202400448968 7-23 15:53 400 PARK ST 63 DISPUTE
202400449014 7-23 15:51 8000 SOUTHSIDE BLVD 0 88J ARMED ASSAULT JUST OCCURRED
202400449013 7-23 15:51 ATLANTIC BLVD / ST JOHNS BLUFF RD N 4 AUTO CRASH
202400449012 7-23 15:50 10TH ST E / MAIN ST N 13 SUSPICIOUS PERSON
202400448995 7-23 15:50 9600 CROSSHILL BLVD 4 53 TRAFFIC CRASH PERSON INJURED
202400448894 7-23 15:48 9800 GATE PKWY N 64 NOISE COMPLAINT
202400448947 7-23 15:46 500 17TH ST W 63 DISPUTE
202400448994 7-23 15:44 2000 EDISON AVE 21R BURGLARY RESIDENCE
202400449003 7-23 15:43 8100 SAN JOSE BLVD 4 AUTO CRASH
202400448884 7-23 15:43 1000 DYAL ST 63 DISPUTE
202400448987 7-23 15:40 13400 ATLANTIC BLVD 19 ANIMAL INVESTIGATION
202400448879 7-23 15:40 COLLINS RD / ROOSEVELT BLVD 38 TRAFFIC ASSIGNMENT
202400448896 7-23 15:37 500 BAY ST E 27 MENTALLY ILL PERSON
202400448708 7-23 15:36 6200 NANCY DR 95ID IDENTITY THEFT
202400448973 7-23 15:33 13200 CITY CENTER BLVD 13 SUSPICIOUS PERSON
202400448904 7-23 15:33 2100 BRACKLAND ST 11 ABANDONED VEHICLE
202400448960 7-23 15:32 8500 BAYMEADOWS RD 2288 DOMESTIC DISPUTE WITH/ASSAULT
202400448980 7-23 15:30 4700 AVENUE B 88 ASSAULT
202400448979 7-23 15:28 200 RIVERSIDE AVE 4 AUTO CRASH
202400448940 7-23 15:25 3500 UNIVERSITY BLVD N 63 DISPUTE
202400448951 7-23 15:24 1600 LIVE OAK DR 2 IMPAIRED/INTOXICATED
202400448862 7-23 15:19 10700 MEADOWLEA CIR W 27 MENTALLY ILL PERSON
202400448965 7-23 15:19 7900 CECIL ST 60 SUICIDE OR ATTEMPT
202400448962 7-23 15:16 700 NAUTICA DR 76 ASSIST OTHER AGENCY
202400448957 7-23 15:14 9100 LEM TURNER RD 0 56 ARMED JUVENILE
202400448873 7-23 15:12 1200 LANE AVE S 3 HIT AND RUN CRASH
202400448956 7-23 15:11 3500 ST JOHNS BLUFF RD S 4 AUTO CRASH
202400448851 7-23 15:09 15900 BAINEBRIDGE DR 95 FRAUD/FORGED (CHECK, ID, RX)
202400448931 7-23 15:08 8600 A C SKINNER PKWY 22 DOMESTIC
202400448943 7-23 15:06 9900 OLD BAYMEADOWS RD 63 DISPUTE
202400448926 7-23 15:04 4300 SOUTHSIDE BLVD 63 DISPUTE
202400448939 7-23 15:04 200 WASHINGTON ST N 76 ASSIST OTHER AGENCY
202400448941 7-23 15:03 13300 ATLANTIC BLVD 0 63 ARMED DISPUTE
202400448923 7-23 15:03 400 MONUMENT RD 22 DOMESTIC
202400448902 7-23 15:00 200 RIVERSIDE AVE 63 DISPUTE
202400448905 7-23 15:00 6700 DISCOVERY CROSSING RD 86T LOST PROPERTY (TELESERVE)
202400448934 7-23 15:00 3100 CANAL ST N 9 THEFT
202400448889 7-23 15:00 1700 SAMONTEE RD 10 VEHICLE THEFT
202400448920 7-23 14:59 1600 45TH ST W 2 22 DOMESTIC DISTURBANCE
202400448925 7-23 14:57 I295 N ON RAMP / NEW KINGS RD 76 ASSIST OTHER AGENCY
202400448887 7-23 14:57 10300 SOUTHSIDE BLVD 63 DISPUTE
202400448883 7-23 14:54 600 PHELPS ST 13 SUSPICIOUS PERSON
202400448910 7-23 14:54 8700 SAN JOSE BLVD 76 ASSIST OTHER AGENCY
202400448885 7-23 14:53 11500 ATLANTIC BLVD 9 THEFT
202400448727 7-23 14:52 4800 TOWN CENTER PKWY 95T FRAUD/FORGED (CHECK, ID, RX) (TELESERVE)
202400448893 7-23 14:52 5TH ST W / MELSON AVE 1050 TRAFFIC STOP
202400448897 7-23 14:46 5500 BROADGATE CT 76 ASSIST OTHER AGENCY
202400448891 7-23 14:42 BLANDING BLVD / 103RD ST 4 AUTO CRASH
202400448774 7-23 14:41 400 BIRD RD 88 ASSAULT
202400448835 7-23 14:41 6300 BEACH BLVD 63 DISPUTE
202400448867 7-23 14:39 11300 BEACH BLVD 63 DISPUTE
202400448800 7-23 14:38 300 ASHLEY ST W 22 DOMESTIC
202400448882 7-23 14:37 8500 BEACH BLVD 4 AUTO CRASH
202400448876 7-23 14:36 CHAFFEE RD S / E I10EXIT S CHAF RP 4 AUTO CRASH
202400448878 7-23 14:34 13200 DIDYMUS DR 60 SUICIDE OR ATTEMPT
202400448849 7-23 14:34 500 CASSAT AVE 64 NOISE COMPLAINT
202400448869 7-23 14:33 7100 PHILIPS HWY 13 SUSPICIOUS PERSON
202400448778 7-23 14:29 11300 BEACH BLVD 27 MENTALLY ILL PERSON
202400448853 7-23 14:26 JESSIE ST / A PHILIP RANDOLPH BLVD 16 ROAD OBSTRUCTION
202400448855 7-23 14:26 300 PARK AV 1066 CANCEL
202400448846 7-23 14:22 10000 ALLENE RD 76 ASSIST OTHER AGENCY
202400448699 7-23 14:21 BAY ST W / LAURA ST N 50 FOUND/ABANDONED PROPERTY
202400448837 7-23 14:18 JTB W OFF RAMP / SOUTHSIDE BLVD 4 53 TRAFFIC CRASH PERSON INJURED
202400448831 7-23 14:14 7TH ST E / MAIN ST N 9 THEFT
202400448830 7-23 14:13 12500 SAN JOSE BLVD 16 ROAD OBSTRUCTION
202400448794 7-23 14:13 1000 EDGEWOOD AVE N 63 DISPUTE
202400448825 7-23 14:11 100 BEAVER ST W 13 SUSPICIOUS PERSON
202400448818 7-23 14:11 11100 SAN JOSE BLVD 9J THEFT JUST OCCURRED
202400448820 7-23 14:10 ARGYLE FOREST BLVD / CECIL COMMERCE CENTER PKWY OFF RAMP 4 53 TRAFFIC CRASH PERSON INJURED
202400448819 7-23 14:10 13700 BETTY DR 63 DISPUTE
202400448792 7-23 14:09 800 DUNN AVE 63 DISPUTE
202400448814 7-23 14:08 6300 ARLINGTON EXPY 76 ASSIST OTHER AGENCY
202400448811 7-23 14:07 2700 MONUMENT RD 63 DISPUTE
202400448789 7-23 14:06 7000 BLACKARD RD 1066 CANCEL
202400448724 7-23 14:04 5400 AVENUE B 63 DISPUTE
202400448797 7-23 14:03 9600 VILLIERS DR S 76 ASSIST OTHER AGENCY
202400448736 7-23 14:02 12400 SHADY CREEK DR 95ID IDENTITY THEFT
202400448781 7-23 14:01 10200 ATLANTIC BLVD 63 DISPUTE
202400448747 7-23 14:01 1200 MARKET ST N 21R BURGLARY RESIDENCE
202482014104 7-23 13:59 100 LEVY RD 63 DISPUTE
202400448786 7-23 13:59 700 LIBERTY ST N 4 AUTO CRASH
202400448686 7-23 13:57 9300 ARGYLE FOREST BLVD 63 DISPUTE
202400448764 7-23 13:56 1600 ROSANNE ST 88 ASSAULT
202400448752 7-23 13:53 300 WOODBINE ST 54 ILLEGALLY PARKED CAR
202400448742 7-23 13:52 4400 TOWN CENTER PKWY 4 AUTO CRASH
202400448780 7-23 13:52 1700 HODGES BLVD 50 FOUND/ABANDONED PROPERTY
202400448777 7-23 13:50 11300 BEACH BLVD 35 OFFICER NEEDS ASSIST
202400448772 7-23 13:50 11800 WATER BLUFF LN E 0 63 ARMED DISPUTE
202400448744 7-23 13:48 4200 CONFEDERATE POINT RD 63 DISPUTE
202400448767 7-23 13:45 600 RIVERSIDE AVE 63 DISPUTE
202400448751 7-23 13:44 5300 WELLER AVE 63 DISPUTE
202400448771 7-23 13:44 7TH ST W / DAVIS ST N 13 SUSPICIOUS PERSON
202400448741 7-23 13:43 3600 EVE DR E 3 HIT AND RUN CRASH
202400448746 7-23 13:42 7600 MERRILL RD 9 THEFT
202400448766 7-23 13:42 17600 NORMANDY BLVD 3388 DISCHARGING FIREARM AT PERSON
202400448642 7-23 13:40 6200 LINDENWOOD CT N 63 DISPUTE
202400448707 7-23 13:37 6700 WILSON BLVD 63 DISPUTE
202400448712 7-23 13:33 LIBERTY ST N / FORSYTH ST E 63 DISPUTE
202400448731 7-23 13:28 3800 HEMLOCK ST 12 RECKLESS DRIVER
202400448734 7-23 13:26 4700 TOWN CROSSING DR 63 DISPUTE
202400448739 7-23 13:25 6800 WILSON BLVD 3 HIT AND RUN CRASH
202400448735 7-23 13:23 2800 TALLEYRAND AVE 13 SUSPICIOUS PERSON
202400448711 7-23 13:22 1400 STEELE ST 2288 DOMESTIC DISPUTE WITH/ASSAULT
202400448654 7-23 13:20 2800 LANTANA LAKES DR E 76 ASSIST OTHER AGENCY
202400448725 7-23 13:19 RIVERPLACE BLVD / MAIN ST S 16 ROAD OBSTRUCTION
202400448714 7-23 13:19 400 MONUMENT RD 1066 CANCEL
202400448721 7-23 13:18 3400 SALAND WAY 63 DISPUTE
202400448722 7-23 13:18 DUNN AVE / BISCAYNE BLVD 4 AUTO CRASH
202400448617 7-23 13:16 4200 CONFEDERATE POINT RD 63 DISPUTE
202400448706 7-23 13:14 2900 TURNING LEAF LN 8 MISSING PERSON
202400448694 7-23 13:13 10600 SAN JOSE BLVD 4 AUTO CRASH
202400448569 7-23 13:13 9100 COUNTRY MILL LN 22 DOMESTIC
202400448579 7-23 13:12 3500 ZOO PKWY 10 VEHICLE THEFT
202400448695 7-23 13:11 1100 DUNN AVE 9 THEFT
202400448691 7-23 13:09 2000 YULEE ST 7 DEAD PERSON
202400448680 7-23 13:06 5000 CLEVELAND RD 63 DISPUTE
202400448646 7-23 13:05 800 21ST ST W 21R BURGLARY RESIDENCE
202400448683 7-23 13:04 1800 EDGEWOOD AVE W 27 MENTALLY ILL PERSON
202400448634 7-23 13:03 1700 LAUDER AVE 19 ANIMAL INVESTIGATION
202400448675 7-23 13:02 LASALLE ST / HENDRICKS AVE 4 AUTO CRASH
202400448678 7-23 13:02 3700 ST JOHNS BLUFF RD S 60 SUICIDE OR ATTEMPT
202400448659 7-23 13:02 400 N HOGAN ST 4 AUTO CRASH
202400448450 7-23 13:01 6800 PALMA CT 22 DOMESTIC
202400448670 7-23 13:01 GRANT RD / EMERSON ST 1050 TRAFFIC STOP
202400448667 7-23 13:01 3000 MONCRIEF RD 9 THEFT
202400448391 7-23 13:00 8300 WILSON BLVD 10 VEHICLE THEFT
202400448671 7-23 12:59 I95 S OFF RAMP / AIRPORT RD 76 ASSIST OTHER AGENCY
202400448663 7-23 12:55 HOGAN RD / PARENTAL HOME RD 54 ILLEGALLY PARKED CAR
202482014095 7-23 12:54 800 SEMINOLE RD 95 FRAUD/FORGED (CHECK, ID, RX)
202400448622 7-23 12:54 400 4TH ST E 63 DISPUTE
202400448643 7-23 12:54 5100 LENOX AVE 9J THEFT JUST OCCURRED
202400448550 7-23 12:50 3000 DUNN AVE 2 63 DISPUTE IMPAIRED/INTOXICATED
202400448597 7-23 12:49 3400 PEACH DR 27 MENTALLY ILL PERSON
202400448639 7-23 12:45 300 CELERY AVE N 73 DRUG INVESTIGATION
202400448626 7-23 12:44 I10 E OFF RAMP / STOCKTON ST 4 AUTO CRASH
202400448609 7-23 12:42 3800 FAYE RD 54 ILLEGALLY PARKED CAR
202400448608 7-23 12:41 6400 BEACH BLVD 73 DRUG INVESTIGATION
202400448637 7-23 12:41 600 RIVERSIDE AVE 13 SUSPICIOUS PERSON
202400448638 7-23 12:41 BELFORT RD / GATE PKWY W 16 ROAD OBSTRUCTION
202400448630 7-23 12:40 8400 DEERWOOD CROSSINGS DR 63 DISPUTE
202400448632 7-23 12:40 6400 FT CAROLINE RD 60 SUICIDE OR ATTEMPT
202400448573 7-23 12:37 3500 WESTWOOD ST 19 ANIMAL INVESTIGATION
202400448625 7-23 12:35 MLKEXIT BLVD RP / BOULEVARD 11 ABANDONED VEHICLE
202400448517 7-23 12:35 10600 SPRING VIEW RD 76 ASSIST OTHER AGENCY
202400448619 7-23 12:34 BEACH BLVD / PEACH DR 4 AUTO CRASH
202400448466 7-23 12:34 4300 ATLANTIC BLVD 50 FOUND/ABANDONED PROPERTY
202400448567 7-23 12:34 3000 PERCY RD 1066 CANCEL
202400448576 7-23 12:33 13100 CITY STATION DR 113 63 DISPUTE
202400448620 7-23 12:33 11400 BEACH BLVD 76 ASSIST OTHER AGENCY
202400448532 7-23 12:30 WATER LILY DR / CREATIVE DR 27 MENTALLY ILL PERSON
202400448615 7-23 12:29 6600 SOUTHPOINT PKWY 63 DISPUTE
202400448613 7-23 12:27 3600 WOOD CREEK LN 60 SUICIDE OR ATTEMPT
202400448578 7-23 12:26 I95 EXPY S 4 AUTO CRASH
202400448610 7-23 12:26 JOEANDY RD / ATLANTIC BLVD 16 ROAD OBSTRUCTION
202400448589 7-23 12:25 5800 OVELLA RD 16 ROAD OBSTRUCTION
202400448599 7-23 12:24 1600 BROOKSIDE CIR E 16 ROAD OBSTRUCTION
202400448596 7-23 12:23 900 RUDDER RD 16 ROAD OBSTRUCTION
202400448584 7-23 12:23 8100 MISTY MEADOWS CT N 76 ASSIST OTHER AGENCY
202400448536 7-23 12:21 500 22ND ST W 63 DISPUTE
202400448522 7-23 12:18 2200 LANE AVE N 95 FRAUD/FORGED (CHECK, ID, RX)
202400448448 7-23 12:16 8800 MONCRIEF-DINSMORE RD 52 ILLEGAL DUMPING
202400448495 7-23 12:13 4500 MERRIMAC AVE 63 DISPUTE
202400448530 7-23 12:11 2700 LEON RD 28 DELIVER MESSAGE
202400448570 7-23 12:11 13700 VICTORIA LAKES DR 22 DOMESTIC
202400448553 7-23 12:09 5600 SAN JOSE BLVD 13 SUSPICIOUS PERSON
202400448547 7-23 12:07 4500 FULTON AVE 63 DISPUTE
202400448565 7-23 12:07 4100 TOWN CENTER PKWY 27 MENTALLY ILL PERSON
202400448546 7-23 12:04 LEM TURNER RD / DUNN AVE 76 ASSIST OTHER AGENCY
202400448518 7-23 12:03 2000 PAYNE AVE 21R BURGLARY RESIDENCE
202400448555 7-23 12:02 10100 ARROWHEAD DR 1066 CANCEL
202400448552 7-23 12:02 14200 PALMETTO SPRINGS ST 60 SUICIDE OR ATTEMPT
202400448354 7-23 12:00 8300 KIPLING CT 2288 DOMESTIC DISPUTE WITH/ASSAULT
202400448542 7-23 11:59 7600 TREELINE CT 13 SUSPICIOUS PERSON
202400448420 7-23 11:58 1100 7TH ST W 21R BURGLARY RESIDENCE
202400448326 7-23 11:57 3800 EVE DR E 22 DOMESTIC
202400448534 7-23 11:56 HOGAN ST N / FORSYTH ST W 16 ROAD OBSTRUCTION
202400448527 7-23 11:55 7400 FULLERTON ST 63 DISPUTE
202400448541 7-23 11:55 2400 MINFORD PL 76 ASSIST OTHER AGENCY
202400010372 7-23 11:55 100 U N F DR 96 ASSIST MOTORIST
202400448505 7-23 11:55 1600 DERRINGER RD 22 DOMESTIC
202400448508 7-23 11:51 10000 SKINNER LAKE DR 2 63 DISPUTE IMPAIRED/INTOXICATED
202400448436 7-23 11:50 1600 10TH ST W 76 ASSIST OTHER AGENCY
202400448481 7-23 11:49 6000 KENNY RD 19 ANIMAL INVESTIGATION
202400448531 7-23 11:49 1000 ASSISI LN 76 ASSIST OTHER AGENCY
202400448490 7-23 11:47 6600 BEACH BLVD 60 SUICIDE OR ATTEMPT
202400448504 7-23 11:46 10700 ATLANTIC BLVD 63 DISPUTE
202400448476 7-23 11:46 100 KING ST 22 DOMESTIC
202400448511 7-23 11:43 7700 NORMANDY BLVD 4 AUTO CRASH
202400448432 7-23 11:37 1000 EDGEWOOD AVE N 9 THEFT
202400448501 7-23 11:36 1400 ALTMAN RD 1066 CANCEL
202400448496 7-23 11:36 48TH ST W / MAIN ST N 2288 DOMESTIC DISPUTE WITH/ASSAULT
202400448417 7-23 11:35 13700 BEACH BLVD 63 DISPUTE
202400448493 7-23 11:34 1800 DUNN AVE 0 55 HOLDING ONE AT GUNPOINT
202400448428 7-23 11:33 8500 NOROAD 4 AUTO CRASH
202400448487 7-23 11:33 3600 ROGERO RD 9P THEFT IN PROGRESS
202400448479 7-23 11:32 2000 CHAFFEE RD S 22 DOMESTIC
202400448359 7-23 11:32 7200 CRANE AVE 10 VEHICLE THEFT
202400448474 7-23 11:31 4300 CONFEDERATE POINT RD 2288 DOMESTIC DISPUTE WITH/ASSAULT
202400448484 7-23 11:26 5900 UNIVERSITY BLVD W 3 HIT AND RUN CRASH
202400448477 7-23 11:25 7200 RUTLEDGE PEARSON DR 63 DISPUTE
202400448441 7-23 11:24 1600 LOGAN ST 21R BURGLARY RESIDENCE
202400448339 7-23 11:23 10500 DONIPHAN DR 73 DRUG INVESTIGATION
202400448460 7-23 11:19 12300 ARROWLEAF LN 13 SUSPICIOUS PERSON
202400448465 7-23 11:19 7500 103RD ST 63 DISPUTE
202400448176 7-23 11:17 3200 HODGES BLVD 63 DISPUTE
202400448458 7-23 11:16 9500 SAN JOSE BLVD 4 AUTO CRASH
202400448457 7-23 11:15 EMERSON ST / I95 N OFF RAMP 13 SUSPICIOUS PERSON
202400448453 7-23 11:14 OLD SUNBEAM RD / SUNBEAM RD 4 AUTO CRASH
202400448445 7-23 11:10 3400 DIVISION ST 14C VANDALISM CONVEYANCE
202400448406 7-23 11:10 1500 UNIVERSITY BLVD W 9 THEFT
202400448440 7-23 11:09 400 CENTURY 21 DR 10 VEHICLE THEFT
202400448219 7-23 11:06 7000 ST IVES CT 19 ANIMAL INVESTIGATION
202400448413 7-23 11:00 100 UNION ST W 63 DISPUTE
202400448415 7-23 10:58 100 KING ST 22 DOMESTIC
202400448361 7-23 10:58 3100 MAIN ST N 63 DISPUTE
202400448414 7-23 10:56 600 MONUMENT RD 63 DISPUTE
202400448310 7-23 10:54 500 ELLIS RD S 21C BURGLARY CONVEYANCE
202400448401 7-23 10:48 4200 CONFEDERATE POINT RD 54 ILLEGALLY PARKED CAR
202400448393 7-23 10:46 2100 ALLANDALE CIR N 16 ROAD OBSTRUCTION
202400448394 7-23 10:45 2900 ST JOHNS BLUFF RD S 4 AUTO CRASH
202400448366 7-23 10:43 800 MEMORIAL PARK RD 38 TRAFFIC ASSIGNMENT
202400448388 7-23 10:41 7000 103RD ST 7 DEAD PERSON
202400448384 7-23 10:40 9100 MERRILL RD 22 DOMESTIC
202400448386 7-23 10:39 2700 MAIN ST N 63 DISPUTE
202400448216 7-23 10:34 5000 WESTCHASE CT 79 OBSCENE / THREAT CALL OR LETTER
202400448367 7-23 10:34 5900 BEACH BLVD 63 DISPUTE
202400448379 7-23 10:33 2300 MAPLE LEAF DR E 4 AUTO CRASH
202400448375 7-23 10:31 8300 GALVESTON AVE 76 ASSIST OTHER AGENCY
202400448290 7-23 10:29 1400 MARKET ST N 14C VANDALISM CONVEYANCE
202400448332 7-23 10:25 5600 EDENFIELD RD 10 VEHICLE THEFT
202400448360 7-23 10:24 2900 WILLOW ST 21C BURGLARY CONVEYANCE
202400448294 7-23 10:24 1500 PRUDENTIAL DR 10R VEHICLE THEFT RECOVERY
202400448312 7-23 10:24 13500 BEACH BLVD 63 DISPUTE
202400448347 7-23 10:23 3100 TERRACE AVE 9 THEFT
202400448336 7-23 10:20 7900 PAUL JONES DR 63 DISPUTE
202400448345 7-23 10:19 SAN JOSE BLVD / OLD ST AUGUSTINE RD 4 53 TRAFFIC CRASH PERSON INJURED
202400448306 7-23 10:17 4100 LOCKHART DR 27 MENTALLY ILL PERSON
202400448340 7-23 10:17 SAN JOSE BLVD / HARTLEY RD 16 ROAD OBSTRUCTION
202400448322 7-23 10:16 2100 ROTHBURY DR 1066 CANCEL
202400448260 7-23 10:15 3500 VICTORIA PARK RD 63 DISPUTE
202400448328 7-23 10:11 10300 WOODLEY CREEK RD W 27 MENTALLY ILL PERSON
202400448284 7-23 10:08 3300 SARA DR 1066 CANCEL
202400448317 7-23 10:08 5900 ARLINGTON EXPY 10R VEHICLE THEFT RECOVERY
202400448316 7-23 10:07 500 ADAMS ST W 61 FIGHT
202400448259 7-23 10:05 1700 DAVIS ST N 63 DISPUTE
202400448308 7-23 10:02 PARK ST / KING ST 4 AUTO CRASH
202400448303 7-23 10:01 PHILIPS HWY / BOWDEN RD 4 AUTO CRASH
202400448292 7-23 10:01 5100 CEMETERY RD 0 63 ARMED DISPUTE
202400448305 7-23 10:01 WATER/JEFFEROSN 4 AUTO CRASH
202400448272 7-23 10:00 8800 BEACH BLVD 9P THEFT IN PROGRESS
202400448197 7-23 10:00 1400 MARKET ST N 10 VEHICLE THEFT